Etusivu
METAR-TAF:

METAR-TAF

Lentoasemat :

Remada, Tunisia

Leveyspiiri: 32-19N, Pituuspiiri: 010-24E, korkeus merenpinnasta: 300 m

Tämänhetkinen sää

Tämä raportti tehtiin 46 minuuttia sitten, kello 19.00 UTC
Tuuli 10 kn idästä/koillisesta, vaihdellen pohjoisen/koillisen ja idän välillä
Lämpötila 23°C
Kosteus 41%
Ilmanpaine 1021 hPa

METAR: DTTD 281900Z AUTO 06010KT 030V100 NCD 23/09 Q1021

Aika: 20:46 (19:46 UTC)


TAF: puuttuu

Säähavainnot ja -ennusteet yli 4000 lentoasemalta (METAR- ja TAF-raportit).

Käytössä olevat sääasemat on merkitty karttaan keltaisilla ja punaisilla pisteillä.

Aseta hiiri pisteen päälle nähdäksesi sääaseman nimen.

Klikkaa sitten nähdäksesi säähavainnot ja -ennusteet.

Kartan vaihtaminen: klikkaa mustalla rastilla varustettuja vihreitä pisteitä, niin voit zoomata sisään; viivalla varustettua vihreää pistettä, niin voit zoomata ulos tai vihreitä nuolia, niin pääset viereisille kartoille.


METAR-TAF: